User: anonymous   Login
Location: Roanoke
(37.2710°N, 79.9420°W)
Time: 09:59:31
(UTC-04:00)
Language:

Cosmos 1441 Rocket - Orbit

View from above orbital plane
View from above orbital plane
View from above satellite
View from above satellite

Ground track
Ground track

The orbit data is extracted from the following two-line orbital elements,

1 13819U 83010B   17085.88701105 +.00001147 +00000-0 +59684-4 0  9994
2 13819 081.1135 255.7022 0031781 252.0979 107.6783 15.14834607861264
Epoch (UTC): 26 March 2017 21:17:17
Eccentricity: 0.0031781
inclination: 81.1135°
perigee height: 499 km
apogee height: 543 km
right ascension of ascending node: 255.7022°
argument of perigee: 252.0979°
revolutions per day: 15.14834607
mean anomaly at epoch: 107.6783°
orbit number at epoch: 86126

The dashed part of the orbit path shows where the satellite is in the earth's shadow,  

DLR